Home > Weather > Oxnard > Past weeks

Flag for USA Weather for the Past 2 Weeks in Oxnard, California, USA

Now
54 °F

Clear.


Feels Like: 54 °F
Forecast: 53 / 67 °F
Wind: 3 mph from Northeast

Location: Oxnard Airport

Current Time: May 3, 2016 at 8:06:35 AM

Latest Report: May 3, 2016 at 6:51 AM


Visibility: 9 mi

Pressure: 29.96 "Hg

Humidity: 86%

Dew Point: 50 °F

Location of OxnardLocation

Historic Weather in Oxnard — Graph

°F

Oxnard Temperature Yesterday

Maximum temperature yesterday: 63 °F (at 2:51 PM)
Minimum temperature yesterday: 56 °F (at 1:51 AM)
Average temperature yesterday: 58 °F

High & Low Weather Summary for the Past Weeks

 TemperatureHumidityPressure
High79 °F (Apr 19, 12:51 PM)90% (Apr 21, 8:51 PM)30.06 "Hg (Apr 21, 8:51 PM)
Low46 °F (Apr 26, 5:51 AM)21% (Apr 18, 11:51 AM)29.70 "Hg (Apr 27, 6:51 PM)
Average60 °F67%29.92 "Hg
* Reported Apr 18 6:51 AM — May 3 6:51 AM, Oxnard, Weather by CustomWeather, © 2016

Note: Actual official high and low records may vary slightly from our data, if they occured in-between our weather recording intervals... More about our weather records

Advertising

Oxnard Weather History for the Previous 24 Hours

Scroll right to see more
 ConditionsComfort  
Time TempWeatherWind HumidityBarometerVisibility
6:51 AM
Tue, May 3
54 °FClear.3 mph86%29.96 "Hg9 mi
5:51 AM54 °FClear.No wind86%29.95 "Hg10 mi
4:51 AM53 °FClear.3 mph89%29.94 "Hg9 mi
3:51 AM54 °FClear.No wind90%29.95 "Hg9 mi
2:51 AM54 °FClear.3 mph90%29.96 "Hg9 mi
1:51 AM55 °FClear.No wind87%29.97 "Hg8 mi
12:51 AM56 °FClear.No wind90%29.97 "Hg8 mi
11:51 PM
Mon, May 2
56 °FClear.No wind90%29.97 "Hg9 mi
10:51 PM56 °FClear.5 mph90%29.98 "Hg8 mi
9:51 PM57 °FClear.7 mph87%29.99 "Hg9 mi
8:51 PM57 °FClear.10 mph87%29.98 "Hg9 mi
7:51 PM57 °FSunny.12 mph90%29.97 "Hg9 mi
6:51 PM59 °FSunny.17 mph81%29.96 "Hg9 mi
5:51 PM61 °FSunny.13 mph75%29.96 "Hg10 mi
4:51 PM63 °FSunny.15 mph73%29.97 "Hg10 mi
3:51 PM63 °FSunny.16 mph73%29.98 "Hg9 mi
2:51 PM63 °FSunny.13 mph73%30.00 "Hg8 mi
1:51 PM61 °FPartly sunny.13 mph75%30.02 "Hg9 mi
12:51 PM62 °FPartly sunny.12 mph73%30.03 "Hg10 mi
11:51 AM60 °FOvercast.6 mph78%30.05 "Hg9 mi
10:51 AM59 °FOvercast.9 mph81%30.05 "Hg8 mi
9:51 AM58 °FOvercast.7 mph84%30.06 "Hg6 mi
8:51 AM58 °FOvercast.3 mph84%30.04 "Hg6 mi
Weather by CustomWeather, © 2016

See weather overviewHow to use our weather pages